FW6626 Weather Reports


Display with metric or nautical units.
time (UTC)temp
F
wind
direction
speed
MPH
gust
MPH
rain 1hr
in
rain 24hr
in
rain mn
in
humidity
%
barometer
mb
20260831171600 79 180 4.0 10.0 0.00 0.00 0.00 67 1014.4
20260831170105 78 360 3.0 9.0 0.00 0.00 0.00 69 1014.5
20260831164601 79 178 1.0 6.0 0.00 0.00 0.00 68 1014.5
20260831163058 79 188 1.0 8.0 0.00 0.00 0.00 67 1014.4
20260831161553 79 121 4.0 8.0 0.00 0.00 0.00 65 1014.4
20260831160059 79 153 2.0 7.0 0.00 0.00 0.00 66 1014.4
20260831154617 76 108 2.0 6.0 0.00 0.00 0.00 73 1014.4
20260831153114 74 150 0.0 2.0 0.00 0.00 0.00 75 1014.3
20260831151605 73 150 0.0 2.0 0.00 0.00 0.00 76 1014.3
20260831150059 72 0 0.0 2.0 0.00 0.00 0.00 78 1014.2
20260831144630 71 0 0.0 1.0 0.00 0.00 0.00 79 1014.1
20260831143104 70 0 0.0 2.0 0.00 0.00 0.00 80 1014.1
20260831141557 70 150 0.0 2.0 0.00 0.00 0.00 81 1013.8
20260831140055 70 0 0.0 0.0 0.00 0.00 0.00 81 1013.7
20260831134600 70 0 0.0 1.0 0.00 0.00 0.00 81 1013.4
20260831133102 70 0 0.0 1.0 0.00 0.00 0.00 81 1013.2
20260831131603 70 0 0.0 1.0 0.00 0.00 0.00 81 1013.1
20260831130109 70 150 1.0 2.0 0.00 0.00 0.00 81 1013.2
20260831124603 70 150 1.0 3.0 0.00 0.00 0.00 81 1013.0
20260831123058 70 149 1.0 6.0 0.00 0.00 0.00 81 1013.1
20260831121603 70 148 2.0 5.0 0.00 0.00 0.00 82 1013.0
20260831120100 70 0 1.0 3.0 0.00 0.00 0.00 82 1013.1
20260831114600 70 150 0.0 2.0 0.00 0.00 0.00 82 1013.0
20260831113110 70 150 0.0 6.0 0.00 0.00 0.00 83 1013.0
20260831111604 69 84 2.0 5.0 0.00 0.00 0.00 85 1013.1
20260831110059 69 92 1.0 4.0 0.00 0.00 0.00 85 1013.1
20260831104603 69 92 1.0 4.0 0.00 0.00 0.00 86 1013.2
20260831103058 69 92 0.0 4.0 0.00 0.00 0.00 85 1013.1
20260831101555 69 131 2.0 5.0 0.00 0.00 0.00 85 1013.2
20260831100122 70 213 1.0 5.0 0.00 0.00 0.00 86 1013.2
20260831094556 69 161 3.0 5.0 0.00 0.00 0.00 86 1013.1
20260831093101 69 164 1.0 4.0 0.00 0.00 0.00 86 1013.1
20260831091603 69 165 1.0 2.0 0.00 0.00 0.00 87 1013.1
20260831090056 69 165 1.0 2.0 0.00 0.00 0.00 87 1013.1
20260831084634 69 165 1.0 5.0 0.00 0.00 0.00 87 1013.3
20260831083104 69 166 2.0 4.0 0.00 0.00 0.00 87 1013.1
20260831081601 70 166 2.0 5.0 0.00 0.00 0.00 86 1013.2
20260831080128 70 167 2.0 4.0 0.00 0.00 0.00 86 1013.3
20260831074609 70 167 2.0 4.0 0.00 0.00 0.00 86 1013.4
20260831073105 69 167 3.0 5.0 0.00 0.00 0.00 87 1013.3
20260831071608 69 238 2.0 4.0 0.00 0.00 0.00 87 1013.3
20260831070106 69 242 2.0 4.0 0.00 0.00 0.00 86 1013.2
20260831064604 69 242 1.0 3.0 0.00 0.00 0.00 86 1013.3
20260831063112 70 242 1.0 3.0 0.00 0.00 0.00 86 1013.1
20260831061557 70 242 1.0 2.0 0.00 0.00 0.00 86 1013.0
20260831060105 70 0 1.0 3.0 0.00 0.00 0.00 86 1013.1
20260831054601 70 244 1.0 3.0 0.00 0.00 0.00 85 1013.1
20260831053124 70 244 1.0 3.0 0.00 0.00 0.00 86 1013.2
20260831051554 70 246 0.0 2.0 0.00 0.00 0.00 85 1013.1
20260831050117 70 0 0.0 1.0 0.00 0.00 0.00 84 1013.1
20260831044600 71 246 0.0 2.0 0.00 0.00 0.00 84 1013.0
20260831043056 71 246 0.0 3.0 0.00 0.00 0.00 84 1012.9
20260831041620 71 245 1.0 4.0 0.00 0.00 0.00 83 1012.8
20260831034559 72 244 2.0 7.0 0.00 0.00 0.00 83 1012.5
20260831033113 72 236 1.0 5.0 0.00 0.00 0.00 83 1012.4
20260831031558 72 234 3.0 7.0 0.00 0.00 0.00 82 1012.1
20260831024606 73 223 2.0 6.0 0.00 0.00 0.00 82 1012.1
20260831023059 73 230 2.0 4.0 0.00 0.00 0.00 81 1011.9
20260831021558 74 264 1.0 5.0 0.00 0.00 0.00 81 1011.7
20260831020056 74 233 2.0 7.0 0.00 0.00 0.00 80 1011.6
20260831014604 74 244 1.0 8.0 0.00 0.00 0.00 81 1011.6
20260831013059 75 246 2.0 8.0 0.00 0.00 0.00 80 1011.5
20260831011558 76 247 4.0 9.0 0.00 0.00 0.00 78 1011.6
20260831010113 77 241 3.0 10.0 0.00 0.00 0.00 75 1011.7
20260831004606 77 237 3.0 10.0 0.00 0.00 0.00 74 1011.6
20260831003107 78 360 4.0 9.0 0.00 0.00 0.00 74 1011.8
20260831001604 78 360 5.0 11.0 0.00 0.00 0.00 74 1011.8
20260830234606 78 220 4.0 13.0 0.00 0.00 0.00 72 1011.7
20260830233104 79 252 6.0 11.0 0.00 0.00 0.00 71 1011.8
20260830231611 80 360 5.0 10.0 0.00 0.00 0.00 71 1011.9
20260830230058 80 253 4.0 11.0 0.00 0.00 0.00 72 1011.8
20260830224607 80 228 4.0 10.0 0.00 0.00 0.00 70 1012.0
20260830223107 79 244 6.0 13.0 0.00 0.00 0.00 72 1012.2
20260830221601 80 261 5.0 12.0 0.00 0.00 0.00 70 1012.5
20260830220100 79 237 7.0 10.0 0.00 0.00 0.00 71 1012.5
20260830214603 80 233 6.0 13.0 0.00 0.00 0.00 70 1012.4
20260830213101 80 274 4.0 14.0 0.00 0.00 0.00 70 1012.7
20260830211558 80 360 5.0 12.0 0.00 0.00 0.00 70 1012.7
20260830210119 79 360 6.0 14.0 0.00 0.00 0.00 71 1012.9
20260830204611 80 360 6.0 13.0 0.00 0.00 0.00 71 1013.1
20260830203059 79 360 6.0 13.0 0.00 0.00 0.00 72 1013.1
20260830201559 80 360 6.0 11.0 0.00 0.00 0.00 71 1013.1
20260830200112 80 360 6.0 14.0 0.00 0.00 0.00 71 1013.1
20260830194645 80 249 5.0 15.0 0.00 0.00 0.00 70 1013.2
20260830193102 80 275 5.0 12.0 0.00 0.00 0.00 70 1013.4
20260830191602 81 360 5.0 11.0 0.00 0.00 0.00 69 1013.5
20260830184556 80 360 6.0 13.0 0.00 0.00 0.00 69 1013.6
20260830183114 81 203 5.0 10.0 0.00 0.00 0.00 69 1013.6
20260830181602 81 360 5.0 9.0 0.00 0.00 0.00 68 1013.4
20260830180108 81 244 3.0 10.0 0.00 0.00 0.00 68 1013.5
20260830174558 80 223 5.0 11.0 0.00 0.00 0.00 72 1013.4
20260830173111 80 211 5.0 10.0 0.00 0.00 0.00 69 1013.3